DELTA 1 DEB, 42642

Orbit data source: Space-Track

DELTA 1 DEB, 42642 is space debris in SSO originally from a launch on Thu, 12 Jun 1975 UTC launched from the Air Force Western Test Range (AFWTR). Debris objects in space refer to the collection of defunct objects orbiting the Earth. Examples of debris include non-operational satellites, rocket bodies, and fragments generated from explosions, collisions, or faulty payload assembly.

Loading next visibility...
Identifier
42642, 1975-052MB
Orbit
SSO
Country
Flag of USUS
Related business
Manufacturer
Unknown
Mission
Spacecraft
Bus & Motor
Unknown
Mass
Unknown
Launch date (UTC)
1975-06-12 (51 years ago)
Launch vehicle
Unknown
Launch site
Air Force Western Test Range (AFWTR)
Object type
Payload
Rocket body
Debris
Shape & HBR
Unknown shape, 0.1 m
Radar Cross Section
Small (<0.1 m²)

Expand to show TLE details & history
Last TLE update: 2 weeks ago

TLE from 2 weeks ago
0 DELTA 1 DEB
1 42642U 75052MB  26156.99193325  .00000077  00000-0  24652-3 0  9994
2 42642  99.8921 254.9891 0076069  40.9632 319.7172 13.31472702609575
Epoch: 2026-06-05T23:48Z
TLE epoch observation values (Epoch: 2026-06-05T23:48:23.032Z)
Latitude
-0.00007°
Longitude
3.47925°
Altitude
1,100.508 km
Speed
7.323 km/s
True Right ascension
16h 59m 57s
True Declination
0° 00' 00"
Sunlit
Object was in full shadow at epoch
Visualization orbit readout
Latitude
Unknown
Longitude
Unknown
Altitude
Unknown
Speed
Unknown
Apparent Right ascension
Unknown
Apparent Declination
Unknown
Sunlit
N/A
Visualization observer readout
Local Sidereal Time
14:42:14
Azimuth
Unknown
Elevation
Unknown
Doppler factor
Unknown
Orbital elements
Apogee altitude
1,195.728 km
Perigee altitude
1,081.371 km
Semi-major axis
7,516.686 km
Eccentricity
0.00761
Inclination
99.8921°
RAAN
254.9891°
Arg. of periapsis
40.9632°
True anomaly
319.14949°
Mean anomaly
319.7172°
Eccentric anomaly
319.43376°
Mean motion
3.33045 °/min
Orbital period
108.09 mins
BSTAR
0.00024652
Loading maneuver chart data...
Computing Atmospheric mass density...
Loading historical data...
Loading historical data...
Loading historical data...
Loading historical data...
Loading historical data...
Loading historical data...
Loading historical data...

Documentation

Showing up to 5 results
|